TOURFACTS.DK  
Stats and Facts from Tour de France.

Tour de France 2019 starts in 348 days
  Riders   Stages   Teams   Summits   Yearly  


 
Search by year

After 2018 - Stage 14:
 15000 starters.
  5163 different riders.
  639 teams.
  2246 stages.
  456 restdays.
  441957.60 km.
  5678 abandonnees.


Top 3
GC
Christopher Froome86:20:55
Rigoberto Urán86:21:49
Romain Bardet86:23:15
Climb
Warren Barguil169 pt.
Primoz Roglic80 pt.
Thomas De Gendt64 pt.
Sprint
Michael Matthews359 pt.
André Greipel234 pt.
Edvald Boasson Hagen220 pt.
Youth
Simon Yates86:27:09
Louis Meintjes86:29:15
Emanuel Buchmann86:54:16
Facts from Tour de France 1933
  |   Stages.  |   Stage winners.  |   Days in yellow  |   Average speed.  |   Route.  |   Teams.  |   All riders.  |   Rookies.  |  

  |   Withdrawls.  |   GC.  |   Polka  |   Green  |   White  |   Summits. (In tour)  |   Miscellaneous.  |  

Stage 6 on July 3rd. 1933
         Owning:    Maurice Archambaud    
Pick a stage:  1 2 3 4 5 6 7 8 9 10 11 12 13 14 15 16 17 18 19 20 21 22 23
From: Evian    To: Aix-les-BainsDist:207.00 km.
Cat: Col de l'Aravis - ThônesBELAlfons Schepers
10 points
 

Average speed for all riders in stage:  29,387 km./hr.
    Place:Name:Team:Time:Km/h:
ITALearco GuerraITAItaly06:55:07  +  00:00:00=29,919 
GERKurt StöpelDEUGermany-Austria06:55:07  +  00:00:00=29,919 
FRARené Le GrevesFRAFrance06:55:07  +  00:00:00=29,919 
4 BELJean AertsBELBelgium06:55:07  +  00:00:00=29,919 
5 BELAlfons SchepersBELBelgium06:55:07  +  00:00:00=29,919 
6 FRAGeorges SpeicherFRAFrance06:55:07  +  00:00:00=29,919 
7 FRARobert BrugéreTouristes Routiers06:55:07  +  00:00:00=29,919 
8 BELGeorges LemaireBELBelgium06:55:07  +  00:00:00=29,919 
9 BELGaston RebryBELBelgium06:55:07  +  00:00:00=29,919 
10 ITAFrancesco CamussoITAItaly06:55:07  +  00:00:00=29,919 
11 ITADomenico PiemontesiITAItaly06:55:07  +  00:00:00=29,919 
12 FRAMaurice ArchambaudFRAFrance06:55:07  +  00:00:00=29,919 
13 BELAntoine DignefTouristes Routiers06:55:07  +  00:00:00=29,919 
14 FRAGaspard RinaldiTouristes Routiers06:55:07  +  00:00:00=29,919 
15 FRAEugene Le GoffTouristes Routiers06:55:07  +  00:00:00=29,919 
16 SUIAlfred BüchiCHESwitzerland06:57:19  +  00:02:12=29,762 
17 ITARenato ScorticatiTouristes Routiers06:57:19  +  00:02:12=29,762 
18 SUIAlfred BulaCHESwitzerland06:57:19  +  00:02:12=29,762 
19 GERHermann BuseDEUGermany-Austria06:57:19  +  00:02:12=29,762 
20 SUIAlbert BüchiCHESwitzerland06:57:19  +  00:02:12=29,762 
21 GERLudwig GeyerDEUGermany-Austria06:57:19  +  00:02:12=29,762 
22 GEROskar ThierbachDEUGermany-Austria06:57:19  +  00:02:12=29,762 
23 ESPVicente TruebaTouristes Routiers06:57:19  +  00:02:12=29,762 
24 SUIWalter BlattmannCHESwitzerland06:57:19  +  00:02:12=29,762 
25 FRARené BernardTouristes Routiers06:58:54  +  00:03:47=29,649 
26 FRAAndré GaillotTouristes Routiers06:58:54  +  00:03:47=29,649 
27 AUTKarl ThallingerTouristes Routiers06:59:57  +  00:04:50=29,575 
28 FRAAdrien ButtafocchiTouristes Routiers06:59:57  +  00:04:50=29,575 
29 SUIGeorges AntenenCHESwitzerland06:59:57  +  00:04:50=29,575 
30 ITAGiuseppe MartanoTouristes Routiers06:59:57  +  00:04:50=29,575 
31 BELKamiel De GraeveTouristes Routiers06:59:57  +  00:04:50=29,575 
32 FRARoger LapebieFRAFrance06:59:57  +  00:04:50=29,575 
33 FRALéon LevelTouristes Routiers06:59:57  +  00:04:50=29,575 
34 BELGustaaf DeloorBELBelgium06:59:57  +  00:04:50=29,575 
35 FRALéon Le CalvezFRAFrance06:59:57  +  00:04:50=29,575 
36 FRALouis PeglionTouristes Routiers06:59:57  +  00:04:50=29,575 
37 FRAAntonin MagneFRAFrance06:59:57  +  00:04:50=29,575 
38 FRADécimo BettiniTouristes Routiers06:59:57  +  00:04:50=29,575 
39 FRAAndré LeducqFRAFrance07:01:40  +  00:06:33=29,455 
40 ITAFabio BattesiniITAItaly07:06:02  +  00:10:55=29,153 
41 BELJoseph MoerenhoutBELBelgium07:06:02  +  00:10:55=29,153 
42 FRAFernand CornezTouristes Routiers07:06:02  +  00:10:55=29,153 
43 ITAVasco BergamaschiITAItaly07:06:02  +  00:10:55=29,153 
44 FRAFernand FayolleTouristes Routiers07:06:02  +  00:10:55=29,153 
45 FRAAuguste MoncieroTouristes Routiers07:06:02  +  00:10:55=29,153 
46 GERWilly KutschbachDEUGermany-Austria07:06:02  +  00:10:55=29,153 
47 AUTMax BullaDEUGermany-Austria07:06:02  +  00:10:55=29,153 
48 FRALéon LouyetTouristes Routiers07:06:02  +  00:10:55=29,153 
49 BELLouis HardiquestTouristes Routiers07:06:02  +  00:10:55=29,153 
50 ITALuigi GiacobbeITAItaly07:06:02  +  00:10:55=29,153 
51 BELJean WautersBELBelgium07:06:02  +  00:10:55=29,153 
52 BELJulien VervaeckeTouristes Routiers07:06:02  +  00:10:55=29,153 
53 BELEmile DecroixTouristes Routiers07:06:02  +  00:10:55=29,153 
54 ITALuigi LuisoniCHESwitzerland07:07:23  +  00:12:16=29,061 
55 FRAJean DriancourtTouristes Routiers07:07:50  +  00:12:43=29,030 
56 FRAFrancois HaasTouristes Routiers07:08:10  +  00:13:03=29,007 
57 ITAAllegro GrandiITAItaly07:12:15  +  00:17:08=28,733 
58 BELLeopold RoosemontTouristes Routiers07:15:55  +  00:20:48=28,492 
59 FRAEmile IgnatTouristes Routiers07:15:55  +  00:20:48=28,492 
60 ITAAntonio FolcoTouristes Routiers07:15:55  +  00:20:48=28,492 
61 FRAPierre-Marie CloarecTouristes Routiers07:15:55  +  00:20:48=28,492 
62 ITARafaële Di PacoITAItaly07:15:55  +  00:20:48=28,492 
63 SUIRoger PipozCHESwitzerland07:15:55  +  00:20:48=28,492 
64 ITAGiovanni FirpoTouristes Routiers07:15:55  +  00:20:48=28,492 
65 FRAErnest NeuhardTouristes Routiers07:18:03  +  00:22:56=28,353 
66 FRAPierre PastorelliTouristes Routiers07:22:55  +  00:27:48=28,041 

Withdrawls: 1
 
Rider
Team
Reason
1  BELGeorges RonsseBELBelgiumDid not finish

Todays birthdays.

1877  Antoine Perrichon
1878  Auguste Berthault
1911  Théo Herckenrath
1924  Carlo Lafranchi
1931  Armand Di Caro
1937  Jean-Claude Lebaube
1951  Giovanni Battaglin
1961  Pascal Jules
1962  Jean-Claude Leclercq
1976  Janek Tombak
1978  Francisco Pérez
1983  Dries Devenyns




Visits: